User: anonymous   Login
Location: Azul
(36.7830°S, 59.8500°W)
Time: 02:13:39
(UTC-03:00)
Language:

AIST 2D - Orbit

View from above orbital plane
View from above orbital plane
View from above satellite
View from above satellite

Ground track
Ground track

The orbit data is extracted from the following two-line orbital elements,

1 41465U 16026B   21295.84657845  .00004565  00000-0  12789-3 0  9991
2 41465  97.0860 175.5054 0008787 277.9297 212.1173 15.37067828306993
Epoch (UTC): 22 October 2021 20:19:04
Eccentricity: 0.0008787
inclination: 97.0860°
perigee height: 449 km
apogee height: 461 km
right ascension of ascending node: 175.5054°
argument of perigee: 277.9297°
revolutions per day: 15.37067828
mean anomaly at epoch: 212.1173°
orbit number at epoch: 30699

The dashed part of the orbit path shows where the satellite is in the earth's shadow,  

DLR